Location: ????????
(48.4751°N, 37.6926°E)
Time: 13:27:40
(UTC+00:00)

Okean-O - Pass Details

Date: 20 January 2021
Orbit: 638 x 641 km, 98.2° (Epoch: 27 February)

Event Time Altitude Azimuth Distance (km) Brightness Sun altitude
Rises 16:29:05 0° 179° (S) 2,934 6.1 -22.8°
Reaches altitude 10° 16:31:20 10° 185° (S) 2,030 5.3 -23.1°
Maximum altitude 16:35:37 49° 260° (W) 836 3.5 -23.9°
Drops below altitude 10° 16:39:57 10° 336° (NNW) 2,046 5.4 -24.6°
Sets 16:42:14 0° 342° (NNW) 2,960 6.2 -24.9°
